Location: Unspecified
(0.0000°N, 0.0000°E)
Time: 09:20:33
(UTC+00:00)

Explorer 11/Cluster Stage 4 - Pass Details

Date: 18 July 2020
Orbit: 467 x 1259 km, 28.8° (Epoch: 03 August)

Event Time Altitude Azimuth Distance (km) Brightness Sun altitude
Rises 06:29:52 0° 278° (W) 2,511 8.6 5.5°
Reaches altitude 10° 06:33:42 10° 319° (NW) 1,602 8.0 6.4°
Maximum altitude 06:34:33 11° 333° (NNW) 1,564 8.1 6.6°
Drops below altitude 10° 06:35:24 10° 347° (NNW) 1,607 8.3 6.8°
Sets 06:39:18 0° 27° (NNE) 2,546 10.1 7.7°
